Regional Weather Roundup
Issued by NWS

Home | Current Version | Previous Version | Text Only | Print | Product List | Glossary On
Versions: 1 2 3 4 5 6 7 8 9 10 11 12 13 14 15 16 17 18 19 20 21 22 23 24 25 26 27
000
ASUS45 KPSR 200910
RWRAZ

ARIZONA HOURLY REGIONAL WEATHER ROUNDUP
NATIONAL WEATHER SERVICE PHOENIX AZ
200 AM MST WED SEP 20 2017

NOTE: FAIR INDICATES FEW OR NO CLOUDS BELOW 12,000 FEET WITH NO
SIGNIFICANT WEATHER AND/OR OBSTRUCTIONS TO VISIBILITY.

AZZ001>003-036-201000-
NORTHWEST ARIZONA

CITY           SKY/WX    TMP DP  RH WIND       PRES   REMARKS
BULLHEAD CITY  CLEAR     81  37  21 S6        29.71R
KINGMAN        CLEAR     60  38  43 S6        29.88S
$$

AZZ004>008-015-016-018-201000-
NORTH CENTRAL ARIZONA

CITY           SKY/WX    TMP DP  RH WIND       PRES   REMARKS
GRAND CANYON   CLEAR     41  30  65 NE3       30.09F
WILLIAMS       CLEAR     55  30  38 S7        30.09S
PRESCOTT       CLEAR     55  35  47 S6        30.01F
FLAGSTAFF      CLEAR     50  30  46 VRB3      30.12S
PAYSON           N/A     55  32  41 CALM      30.06S
PAGE           CLEAR     72  38  29 SW6       29.89S
$$

AZZ009>014-017-201000-
NORTHEAST ARIZONA

CITY           SKY/WX    TMP DP  RH WIND       PRES   REMARKS
WINSLOW        CLEAR     56  34  43 S5        29.99F
SAINT JOHNS    CLEAR     63  30  28 E3        30.04S
WINDOW ROCK    CLEAR     54  32  43 CALM      30.10F
SHOW LOW       CLEAR     59  25  27 S16G24    30.10S
$$

AZZ540-542>544-546-548-201000-
GREATER PHOENIX AREA

CITY           SKY/WX    TMP DP  RH WIND       PRES   REMARKS
PHOENIX        CLEAR     77  30  17 E9        29.79S
BUCKEYE        CLEAR     72  25  17 N3        29.80S
LUKE AFB       CLEAR     75  30  19 CALM      29.80R
SCOTTSDALE     CLEAR     76  26  15 CALM      29.84S
MESA-GATEWAY   CLEAR     68  30  24 E6        29.84S
$$

AZZ539-553-201000-
SOUTHWEST MARICOPA COUNTY AND PINAL COUNTY

CITY           SKY/WX    TMP DP  RH WIND       PRES   REMARKS
CASA GRANDE    NOT AVBL
GILA BEND      FAIR      76  31  19 SE9       29.77S
$$

AZZ503-504-507>509-201000-
SOUTHEAST ARIZONA

CITY           SKY/WX    TMP DP  RH WIND       PRES   REMARKS
TUCSON         CLEAR     75  56  51 SE7       29.94F
DAVIS-MONTHAN  CLEAR     71  52  50 S3        29.93F
NOGALES        CLEAR     65  56  72 S6        30.02F
SIERRA VISTA   CLEAR     72  55  56 W6        30.06F
DOUGLAS        CLEAR     68  55  63 CALM      30.03F
SAFFORD        CLEAR     73  38  27 NW6       29.92S
$$

AZZ532-201000-
SOUTHWEST ARIZONA

CITY           SKY/WX    TMP DP  RH WIND       PRES   REMARKS
YUMA           CLEAR     77  56  48 CALM      29.73S
$$

CAZ041-043-047-048-061-525>527-560>570-201000-
SOUTHERN CALIFORNIA

CITY           SKY/WX    TMP DP  RH WIND       PRES   REMARKS
DOWNTOWN L.A.  CLEAR     66  60  81 CALM      29.88S
L.A. AIRPORT   PTCLDY    65  61  87 CALM      29.88S
SAN DIEGO      MOCLDY    69  60  73 S7        29.90F
BURBANK        CLEAR     64  57  78 SE3       29.88S
RIVERSIDE      CLOUDY    65  60  84 VRB3      29.89S
PALM SPRINGS   CLEAR     76  55  48 W9        29.73S
EL CENTRO NAS  CLEAR     80  34  19 W16       29.72S
IMPERIAL       CLEAR     75  42  30 W8        29.70S
BLYTHE         CLEAR     75  51  43 S7        29.72R
NEEDLES        CLEAR     81  41  24 CALM      29.73R
$$

NVZ020-UTZ003-201000-
SOUTHERN NEVADA-UTAH

CITY           SKY/WX    TMP DP  RH WIND       PRES   REMARKS
LAS VEGAS      CLEAR     75  41  29 S10       29.76R
SALT LAKE CITY PTCLDY    50  38  63 SE6       29.94S
$$

NMZ009-TXZ055-201000-
NEW MEXICO-WEST TEXAS

CITY           SKY/WX    TMP DP  RH WIND       PRES   REMARKS
ALBUQUERQUE    CLOUDY    68  36  30 SW12      30.02S
EL PASO        PTCLDY    81  48  31 W15       29.96F
$$


........................KEY........................
SKY/WX - SKY CONDITION/WEATHER
TMP    - TEMPERATURE IN FAHRENHEIT
DP     - DEW POINT IN FAHRENHEIT
RH     - RELATIVE HUMIDITY IN PERCENT
WIND   - DIRECTION AND SPEED IN MILES PER HOUR (MPH)
VRB    - VARIABLE WIND DIRECTION
PRES   - MEAN SEA LEVEL PRESSURE IN INCHES OF MERCURY
         F - FALLING PRESSURE   R - RISING PRESSURE
         S - STEADY PRESSURE
VSB    - VISIBILITY IN MILES
HX     - HEAT INDEX IN FAHRENHEIT
WCI    - WIND CHILL INDEX IN FAHRENHEIT
TC     - TEMPERATURE IN CELSIUS WHICH IS ALSO KNOWN AS
         TEMPERATURE IN CENTIGRADE
AFB    - AIR FORCE BASE
         LUKE AFB IS LUKE AIR FORCE BASE
         DAVIS-MONTHAN IS DAVIS-MONTHAN AIR FORCE BASE
NAS    - NAVAL AIR STATION
         EL CENTRO NAS IS EL CENTRO NAVAL AIR STATION
N/A    - NOT AVAILABLE





USA.gov is the U.S. government's official web portal to all federal, state and local government web resources and services.